Location: Eisingen in Unterfranken
(49.7591°N, 9.8347°E)
Time: 03:56:03
(UTC+01:00)

BlueWalker 3 - Pass Details

Date: 29 November 2022
Orbit: 499 x 517 km, 53.2° (Epoch: 26 January)

Event Time Altitude Azimuth Distance (km) Brightness Sun altitude
Rises 17:43:32 0° 252° (WSW) 2,630 7.8 -12.3°
Reaches altitude 10° 17:45:44 10° 254° (WSW) 1,741 6.2 -12.7°
Maximum altitude 17:49:41 75° 341° (NNW) 535 2.0 -13.3°
Enters shadow 17:52:01 23° 63° (ENE) 1,118 3.1 -13.6°
